Theta_e
313 314 313 316 315 314 315 316 318 317 318 317 316 316 317 319 320 319 319 320 320 322 322 322 323 323 324 323 323 324 324 324 324 320 319 319 319 320 321 321 322 322 323 323
312 313 316 316 315 314 316 315 316 316 316 315 317 317 317 318 319 320 319 321 321 320 322 322 323 323 323 323 323 324 324 324 324 323 322 322 322 323 323 323 323 324 324 322
315 314 314 315 313 314 313 316 316 316 315 315 315 314 315 318 320 320 320 321 320 320 320 320 321 323 324 324 324 324 324 324 324 324 324 324 324 324 324 325 324 324 323 324
315 314 320 315 313 314 315 314 314 315 315 314 314 317 317 318 319 320 320 319 319 319 320 320 320 321 321 322 323 323 323 324 324 324 324 324 324 323 323 324 323 324 323 322
315 318 315 316 315 316 316 316 315 315 314 315 316 314 314 316 318 319 318 318 318 319 319 319 319 320 322 323 325 325 324 324 324 323 323 321 321 322 323 323 321 321 321 320
314 316 315 315 314 314 316 317 315 314 314 314 314 315 313 316 316 316 317 317 318 320 320 320 319 321 323 325 325 325 323 323 321 320 319 320 320 320 318 319 319 316 315 312
313 315 314 314 315 314 318 316 315 317 315 315 314 317 318 316 318 318 319 319 320 320 319 320 321 322 324 324 323 322 322 321 321 320 320 318 317 316 316 315 314 313 311 309
314 316 316 312 315 318 314 316 317 317 317 317 316 317 315 318 319 320 320 320 320 320 321 323 324 325 324 323 320 320 319 318 317 316 315 313 312 312 311 311 310 308 306 305
313 313 312 311 312 312 315 316 316 317 317 319 319 320 319 319 319 320 321 321 322 322 322 321 320 320 319 317 317 316 315 314 312 311 310 310 310 310 309 307 305 304 302 300
311 311 311 311 312 313 314 316 317 318 317 318 317 316 318 320 320 320 320 321 320 320 319 316 314 313 312 311 311 311 311 310 309 309 308 306 305 303 302 300 298 297 295 294
311 312 312 312 311 313 314 315 315 317 317 318 317 315 319 319 320 319 318 319 318 315 315 311 310 309 308 309 309 309 308 306 304 302 301 300 299 297 296 294 294 294 293 292
308 310 310 310 312 313 314 314 315 315 316 318 318 317 318 314 314 317 313 315 316 309 309 308 308 307 306 305 305 305 303 300 299 298 297 296 295 294 293 293 292 291 289 288
308 309 308 309 313 315 316 314 316 316 315 317 317 315 317 317 315 307 310 310 307 305 303 302 303 303 300 300 301 300 298 296 296 295 294 293 292 291 289 288 287 286 285 285
309 307 306 308 312 313 314 314 314 316 313 312 308 308 312 305 305 310 306 302 301 301 298 297 297 294 293 294 295 295 295 293 293 292 290 289 288 288 286 286 285 283 282 281
305 305 307 309 311 312 313 313 315 314 311 311 307 306 305 304 302 297 299 300 297 295 293 293 294 293 293 294 295 293 292 290 289 288 287 286 285 284 284 283 281 280 280 279
308 310 311 311 308 309 309 306 308 300 310 300 302 301 295 297 296 296 293 294 295 293 292 293 292 290 291 291 291 290 288 287 287 286 285 283 282 281 280 278 278 277 276 276
308 308 309 308 306 306 304 300 303 300 297 297 295 296 296 295 293 291 291 292 292 291 290 290 288 288 288 288 288 287 286 284 283 282 281 280 279 278 277 276 275 274 273 272
308 310 309 309 306 304 300 299 297 296 295 293 293 293 292 292 291 289 289 289 289 288 286 286 286 286 286 284 283 283 282 281 280 279 277 276 275 274 273 272 272 271 270 270
304 305 305 305 302 300 297 296 295 294 291 291 291 291 291 290 288 286 286 287 286 285 282 283 283 283 282 281 280 279 278 277 276 275 274 273 272 272 271 270 269 269 268 268
297 297 297 298 296 296 293 291 292 290 289 290 290 288 287 286 286 286 286 285 282 281 281 281 281 281 278 277 276 276 275 274 273 272 272 271 270 269 269 269 268 268 267 267
292 291 289 290 288 288 288 288 290 288 287 289 290 287 285 284 284 284 285 283 278 279 279 279 277 276 275 275 274 273 273 272 271 270 270 269 269 269 268 268 267 267 267 267
288 288 286 285 285 284 285 286 288 288 286 287 287 285 285 283 284 283 281 281 277 277 276 275 275 274 273 272 272 272 271 270 270 270 269 269 268 268 267 267 267 267 266 266
285 285 286 287 285 285 285 286 285 285 285 285 284 284 284 283 282 281 279 275 275 274 274 274 272 272 272 271 271 270 270 270 269 269 268 268 268 268 268 267 267 266 266 266
283 284 283 283 285 285 283 282 283 284 284 284 283 283 283 281 278 277 275 274 273 273 273 272 271 271 271 270 270 270 269 269 268 268 268 268 268 268 267 266 266 266 266 266
282 282 282 283 283 281 283 283 283 282 282 281 280 279 279 277 278 274 274 273 272 272 272 271 270 270 270 270 269 269 269 268 268 268 268 268 267 267 267 267 267 267 266 266
282 282 282 283 282 283 283 283 283 281 280 279 277 276 275 275 274 273 272 272 271 271 271 270 270 270 269 269 268 268 268 268 268 268 267 267 267 267 267 267 267 266 266 266
282 283 283 283 282 283 283 282 281 279 278 277 276 274 274 273 272 272 271 271 271 270 270 270 269 269 269 268 268 269 268 268 268 267 267 267 267 267 267 267 266 266 266 266
Wind_Speed
12 16 16 27 23 15 17 12 10 6 12 10 10 9 14 26 17 13 14 10 17 23 23 24 26 26 27 27 28 31 35 41 45 50 50 49 48 47 47 45 43 42 42 43
12 14 18 22 21 14 9 5 4 5 6 7 11 14 8 17 19 17 19 17 19 25 25 27 28 27 28 29 30 31 31 32 34 39 42 44 45 44 42 41 41 39 37 36
5 5 15 8 22 20 10 6 8 7 8 4 6 7 13 27 32 29 27 21 27 26 26 25 28 30 32 30 29 30 30 30 30 29 30 31 31 33 33 32 30 28 26 32
3 4 5 7 6 16 14 10 9 6 6 7 8 21 30 26 28 31 29 29 27 23 21 24 24 23 22 23 24 24 25 26 24 24 24 24 24 23 21 20 20 25 25 26
2 3 7 12 7 3 7 15 11 13 9 9 16 8 17 19 28 30 25 20 20 19 17 14 12 11 11 12 12 12 14 15 16 14 11 11 12 14 17 18 19 21 24 21
2 3 5 6 7 22 2 6 6 8 9 9 7 1 7 13 14 16 13 15 19 14 13 9 6 4 3 3 2 4 5 5 5 4 5 5 7 8 11 12 15 14 13 14
11 5 7 9 4 22 4 5 3 6 11 8 4 9 21 7 9 11 16 20 20 16 12 9 7 4 5 7 10 10 9 7 6 6 5 4 6 7 9 10 11 11 13 13
6 5 5 8 4 2 4 14 7 14 18 9 5 5 13 8 12 17 18 17 16 16 15 13 10 7 11 11 10 7 6 5 3 1 1 3 5 6 7 7 9 11 14 13
6 5 7 5 8 19 18 12 16 21 21 20 6 17 25 10 13 17 19 19 17 16 17 16 13 8 11 11 7 5 4 5 4 3 3 2 2 3 5 8 10 11 12 10
1 7 14 17 15 19 22 17 16 20 20 23 16 4 12 17 19 20 20 19 16 16 17 17 14 14 14 12 9 7 5 7 5 3 4 5 5 6 6 6 5 5 4 3
6 14 18 15 11 18 9 3 12 10 16 14 16 7 17 20 19 18 18 18 15 13 19 19 17 17 16 13 10 10 12 11 10 9 9 8 8 9 8 10 7 4 3 4
5 11 8 14 21 22 14 11 7 13 15 10 9 7 14 17 19 18 18 19 15 15 19 21 18 17 15 13 10 10 13 14 13 11 11 10 9 7 5 4 6 7 7 7
12 19 21 26 14 9 4 2 9 10 6 15 13 15 12 13 12 18 21 20 21 20 20 20 19 18 16 14 13 14 15 14 11 9 8 7 7 6 7 8 9 9 9 11
19 24 20 18 12 10 1 5 8 14 11 7 13 18 22 25 24 20 21 23 23 22 22 23 24 25 21 18 15 13 11 11 9 8 8 7 7 8 7 8 8 9 10 8
26 24 22 22 13 6 10 15 13 20 15 16 14 17 19 26 25 27 27 26 27 28 27 25 24 23 16 12 10 10 10 10 10 10 10 10 9 9 9 9 9 8 7 7
9 14 15 13 11 11 12 14 14 14 20 16 21 24 26 29 32 32 33 33 29 28 24 21 21 18 13 11 12 12 12 12 10 10 10 10 10 11 11 11 11 11 12 13
10 15 15 16 15 15 12 11 15 18 21 23 27 30 31 34 36 36 34 29 27 26 22 19 21 17 15 13 12 13 12 11 11 10 11 12 12 12 12 13 13 14 14 15
12 18 18 19 18 17 17 17 20 23 25 29 33 36 38 36 37 34 31 28 27 26 23 21 18 16 15 15 13 13 12 12 11 12 12 12 13 13 13 13 13 14 14 16
9 9 12 16 17 20 23 26 27 28 32 35 38 40 38 36 35 34 30 28 26 26 24 19 17 15 15 15 13 12 12 11 11 12 12 13 13 13 13 14 15 15 16 17
5 8 14 20 21 23 30 31 34 37 38 40 40 40 39 35 31 30 26 28 26 24 19 16 13 13 13 13 12 12 11 11 12 13 13 14 14 15 16 15 16 16 16 17
12 15 19 26 29 29 32 35 40 41 38 36 36 37 38 35 31 28 26 28 23 17 15 13 12 13 12 11 11 12 13 14 14 15 15 15 14 14 14 15 16 17 18 19
19 24 28 32 35 37 37 37 38 41 39 38 37 36 35 32 27 26 24 23 20 13 12 12 13 12 12 12 13 14 15 15 15 14 13 13 14 16 17 18 18 18 19 20
26 30 33 36 37 39 38 37 36 37 38 37 35 33 31 29 25 24 26 20 16 12 12 13 14 13 13 13 15 15 14 13 13 14 15 16 17 17 18 18 20 21 22 23
31 34 38 41 41 42 44 40 39 37 35 32 30 26 24 25 25 22 21 17 14 12 13 14 13 14 14 14 13 13 13 13 15 16 16 16 16 17 18 20 21 22 23 24
35 37 38 41 43 43 41 38 37 34 32 30 27 25 21 18 17 21 16 15 13 12 13 14 13 12 11 12 12 12 14 15 16 16 15 16 17 19 20 20 21 22 23 23
36 37 37 38 39 38 37 34 34 30 28 28 25 22 21 19 18 17 15 14 13 13 12 12 11 11 11 11 13 14 15 15 15 14 15 17 17 18 19 20 21 22 22 21
36 36 36 35 33 31 30 28 28 28 24 22 25 21 18 17 15 14 13 12 12 11 10 10 10 10 11 12 13 13 13 13 14 15 16 16 17 19 20 21 22 22 21 21
Wind_Direction
254 273 290 285 266 234 212 221 208 197 211 224 226 219 238 240 250 236 232 230 235 235 240 242 242 244 248 248 249 248 245 245 245 244 249 254 256 259 261 263 266 268 272 274
284 279 279 265 260 245 224 184 224 255 255 232 251 237 259 247 242 247 241 242 242 236 237 245 246 241 244 246 247 249 249 249 250 250 251 254 258 262 265 267 268 270 272 270
270 338 318 267 226 234 229 199 169 212 224 251 267 218 236 246 252 252 252 246 231 232 238 239 245 245 246 251 254 253 254 254 254 256 256 257 260 261 263 266 270 272 271 269
260 347 255 289 230 212 216 229 210 200 219 239 233 276 282 265 254 247 251 250 239 224 224 235 242 247 247 247 248 247 247 248 250 251 252 254 257 259 261 261 262 262 262 268
261 256 305 296 293 179 178 248 224 225 209 240 276 287 277 267 252 246 254 235 207 203 211 208 214 225 234 239 240 235 231 232 237 244 242 243 250 246 240 245 251 257 256 260
200 238 245 219 296 329 350 277 243 199 219 223 158 226 275 294 229 220 209 201 188 174 160 150 152 171 176 159 149 138 150 165 171 191 207 213 225 242 250 264 269 264 264 266
221 232 271 264 12 326 220 243 313 360 257 197 200 190 247 257 173 152 151 149 152 146 139 135 132 132 122 113 115 121 130 144 156 159 171 222 258 279 273 269 268 257 254 222
202 196 261 222 116 231 249 321 303 349 23 353 244 316 297 191 155 150 139 131 134 137 130 122 119 126 127 123 125 130 136 134 130 72 303 308 297 290 277 267 252 227 207 200
197 220 258 231 267 276 281 298 325 344 1 8 38 264 269 241 170 145 139 138 135 135 127 119 118 120 133 116 117 109 87 83 53 38 349 301 291 262 214 208 209 208 212 202
346 263 255 282 285 326 305 285 324 311 334 7 355 242 173 154 136 133 133 127 128 133 125 118 114 108 102 105 107 107 104 120 111 120 135 142 156 162 174 172 169 154 139 107
274 277 287 292 341 352 330 320 4 294 326 353 358 85 118 132 136 132 123 125 133 130 125 124 126 122 120 123 123 125 123 117 115 116 111 114 108 98 90 87 77 63 19 323
247 301 306 298 318 322 318 301 303 301 286 264 287 205 170 136 127 130 141 128 130 134 126 127 129 125 125 123 120 111 109 109 107 101 93 82 74 72 58 21 348 350 10 355
264 278 310 309 310 354 214 4 40 349 276 196 206 209 173 156 147 138 131 130 133 130 126 126 123 119 115 117 120 116 110 106 100 89 81 69 56 43 32 23 21 12 2 353
266 291 304 303 319 337 292 134 88 59 42 123 145 152 146 137 140 144 129 127 130 126 125 118 114 109 109 111 110 102 98 96 88 80 67 55 45 36 25 14 8 4 5 12
272 281 278 284 262 188 164 147 143 134 148 146 160 144 153 146 132 123 127 129 128 125 118 115 110 103 103 99 95 91 85 77 69 64 58 50 41 32 24 15 8 1 348 336
257 277 263 236 192 154 171 182 169 138 166 157 156 150 143 135 129 128 124 128 130 118 112 109 103 98 95 89 84 82 77 71 58 51 47 38 30 21 14 8 -0 353 345 342
250 217 208 194 184 163 174 155 159 151 147 145 141 139 136 131 128 126 125 125 119 113 108 104 100 98 93 85 77 73 68 62 53 45 36 28 23 17 10 1 356 351 346 339
241 244 234 232 187 167 152 145 144 142 142 142 139 137 133 132 125 123 121 120 116 110 102 97 96 93 85 76 70 65 56 49 40 33 28 21 17 11 6 2 357 351 347 342
253 251 214 187 175 162 151 144 142 141 140 140 138 133 132 130 128 124 123 119 111 106 97 92 87 83 77 68 55 48 43 38 35 31 27 21 14 9 4 1 359 354 349 345
201 172 165 149 150 153 144 142 140 140 141 142 138 134 129 125 125 124 123 109 102 100 100 92 85 75 63 53 45 41 39 38 36 32 25 21 19 15 9 5 1 356 352 348
143 146 145 140 136 135 138 142 141 137 139 139 134 127 124 123 124 121 115 106 100 99 95 91 76 65 56 49 43 42 40 38 35 35 30 25 20 19 16 12 8 4 360 354
140 142 136 133 131 130 132 134 137 137 138 134 129 127 125 121 121 114 105 105 105 101 93 82 71 63 55 47 43 41 41 41 40 36 33 31 26 21 17 12 7 3 358 353
132 136 133 130 129 127 131 130 131 132 127 126 126 127 123 120 117 117 110 105 102 95 86 76 68 59 53 49 48 46 45 44 42 37 33 27 21 15 10 5 1 358 355 351
131 127 126 128 130 130 127 131 131 128 125 125 125 123 123 122 115 108 105 105 95 85 77 71 65 59 52 50 50 49 47 42 37 32 26 19 13 8 4 2 359 355 350 346
120 123 126 129 129 126 126 126 124 125 126 123 121 121 119 116 113 112 107 99 89 78 72 68 62 58 54 52 49 44 39 34 28 22 15 11 8 5 1 357 353 349 347 347
126 125 125 125 126 129 129 131 127 127 128 124 120 120 118 113 107 106 100 92 82 74 70 67 61 56 50 44 39 31 26 21 15 10 10 8 3 359 354 351 349 348 347 347
130 130 128 126 127 130 131 129 127 127 128 127 123 120 115 110 105 100 92 85 78 72 65 60 54 47 40 33 25 17 12 9 9 8 5 1 356 352 351 349 348 346 345 344